Total_Precipitation_Accumulation
1.43 1.51 1.58 1.57 1.59 1.65 1.73 1.88 2.04 1.95 1.74 1.50 1.47 1.42 1.39 1.36 1.44 1.26 1.27 1.21 1.15 1.21 1.22 1.26 1.33 1.48 1.55 1.45 1.34 1.27 1.27 1.35 1.48 1.62 1.84 2.10 2.37 2.65
1.30 1.29 1.29 1.27 1.33 1.38 1.49 1.61 1.77 1.89 1.77 1.44 1.39 1.45 1.46 1.35 1.50 1.36 1.31 1.26 1.20 1.39 1.55 1.50 1.47 1.65 1.79 1.75 1.55 1.41 1.36 1.35 1.39 1.44 1.55 1.75 1.98 2.21
1.07 1.07 1.09 1.15 1.23 1.24 1.27 1.42 1.63 1.81 1.84 1.49 1.35 1.42 1.56 1.53 1.53 1.47 1.37 1.32 1.36 1.72 1.92 2.11 1.87 1.77 1.89 1.88 1.77 1.57 1.43 1.37 1.43 1.52 1.61 1.73 1.80 1.88
0.98 1.04 1.04 1.07 1.12 1.19 1.25 1.33 1.48 1.70 1.85 1.73 1.51 1.51 1.57 1.58 1.62 1.60 1.40 1.25 1.30 1.74 2.02 2.33 2.29 2.05 2.06 1.91 1.75 1.58 1.46 1.40 1.42 1.48 1.55 1.60 1.66 1.75
0.93 0.99 1.03 1.15 1.15 1.17 1.24 1.29 1.40 1.52 1.80 1.84 1.65 1.61 1.67 1.73 1.83 1.70 1.52 1.49 1.24 1.49 1.90 2.23 2.39 2.42 2.49 2.34 2.03 1.69 1.47 1.34 1.27 1.29 1.36 1.43 1.44 1.45
0.91 0.97 1.01 1.14 1.22 1.25 1.26 1.29 1.35 1.50 1.67 1.83 1.78 1.73 1.78 1.87 1.90 1.84 1.71 1.57 1.41 1.33 1.76 2.23 2.56 2.59 2.75 2.83 2.53 2.06 1.66 1.40 1.25 1.18 1.12 1.10 1.16 1.16
0.86 0.87 0.91 1.02 1.13 1.12 1.06 1.10 1.26 1.49 1.57 1.74 1.79 1.76 1.76 1.88 1.85 1.65 1.59 1.53 1.37 1.29 1.51 1.90 2.60 2.91 2.94 2.99 2.86 2.34 1.87 1.56 1.34 1.20 1.12 1.06 1.05 1.07
0.83 0.83 0.79 0.79 0.79 0.81 0.86 0.93 1.08 1.34 1.66 1.85 1.82 1.76 1.65 1.63 1.69 1.63 1.64 1.64 1.56 1.26 1.24 1.52 2.11 2.90 3.14 3.07 2.96 2.34 1.79 1.48 1.33 1.22 1.17 1.14 1.11 1.11
0.90 0.88 0.70 0.61 0.72 0.78 0.83 0.88 1.01 1.19 1.49 1.84 1.92 1.70 1.65 1.62 1.68 1.67 1.72 1.77 1.64 1.31 1.33 1.58 1.95 2.64 2.83 2.81 2.69 2.04 1.60 1.35 1.21 1.15 1.13 1.10 1.06 1.08
0.83 0.86 0.86 0.80 0.76 0.84 0.91 0.99 1.12 1.24 1.36 1.47 1.77 1.60 1.40 1.42 1.51 1.56 1.65 1.66 1.56 1.38 1.41 1.69 1.95 2.40 2.40 2.48 2.37 1.87 1.49 1.31 1.15 1.05 1.02 1.03 1.01 1.02
0.73 0.73 0.72 0.75 0.81 0.95 1.09 1.29 1.41 1.52 1.43 1.59 1.76 1.70 1.56 1.50 1.38 1.45 1.68 1.72 1.63 1.47 1.45 1.70 1.87 1.98 2.10 2.20 1.97 1.76 1.48 1.30 1.17 1.07 1.00 0.96 0.92 0.96
0.77 0.75 0.68 0.64 0.76 0.92 1.18 1.47 1.61 1.67 1.53 1.63 1.90 1.94 1.77 1.77 1.74 1.64 1.76 1.80 1.73 1.66 1.45 1.55 1.74 1.75 1.97 1.93 1.76 1.63 1.54 1.53 1.37 1.22 1.11 0.96 0.86 0.84
0.76 0.83 0.80 0.72 0.77 0.98 1.20 1.41 1.57 1.60 1.64 1.73 1.75 1.76 1.83 1.87 1.86 1.79 1.75 1.75 1.72 1.64 1.35 1.47 1.69 1.73 1.83 1.84 1.80 1.78 1.72 1.68 1.54 1.48 1.43 1.27 1.07 0.95
0.80 0.83 0.83 0.78 0.82 1.01 1.19 1.44 1.66 1.74 1.72 1.77 1.62 1.52 1.47 1.50 1.57 1.56 1.52 1.49 1.45 1.39 1.31 1.42 1.71 1.86 1.80 1.70 1.86 1.88 1.91 1.97 1.88 1.78 1.69 1.60 1.43 1.34
0.71 0.78 0.79 0.80 0.93 1.23 1.40 1.56 1.73 1.85 1.88 1.75 1.56 1.43 1.30 1.24 1.24 1.31 1.35 1.34 1.27 1.15 1.09 1.24 1.55 1.73 1.77 1.75 1.89 1.93 2.03 2.20 2.15 2.13 1.98 1.82 1.71 1.57
0.70 0.84 0.92 0.96 1.12 1.42 1.62 1.81 1.85 1.77 1.62 1.56 1.47 1.38 1.23 1.17 1.19 1.14 1.16 1.21 1.22 1.19 1.09 1.12 1.36 1.62 1.75 1.66 1.74 1.87 1.97 2.30 2.28 2.11 2.00 2.01 1.93 1.77
0.65 0.84 1.02 1.13 1.31 1.51 1.67 1.73 1.71 1.60 1.50 1.32 1.26 1.31 1.28 1.18 1.16 1.08 1.06 1.08 1.15 1.19 1.15 1.14 1.19 1.32 1.39 1.45 1.61 1.75 1.90 2.10 2.16 1.99 1.88 1.94 2.00 1.88
0.64 0.86 1.01 1.09 1.26 1.46 1.59 1.54 1.44 1.36 1.28 1.18 1.14 1.11 1.10 1.06 1.05 1.02 0.95 0.94 1.02 0.99 0.96 0.96 1.03 1.13 1.16 1.21 1.42 1.59 1.66 1.83 1.84 1.71 1.58 1.65 1.88 1.91
0.62 0.83 0.97 1.08 1.27 1.39 1.41 1.37 1.32 1.23 1.15 1.13 1.10 1.02 0.96 0.93 0.91 0.88 0.86 0.88 0.85 0.81 0.77 0.76 0.84 1.00 1.14 1.33 1.36 1.40 1.50 1.59 1.56 1.46 1.42 1.50 1.75 1.92
0.61 0.80 0.95 1.04 1.13 1.20 1.28 1.32 1.27 1.18 1.09 1.08 1.13 1.08 0.99 0.91 0.84 0.81 0.79 0.74 0.73 0.71 0.70 0.66 0.63 0.73 0.90 1.03 1.20 1.27 1.24 1.27 1.28 1.34 1.31 1.37 1.53 1.61
0.64 0.77 0.87 0.95 0.97 0.97 1.04 1.11 1.12 1.10 1.05 1.01 1.01 1.02 0.95 0.86 0.76 0.69 0.65 0.55 0.55 0.60 0.61 0.57 0.51 0.51 0.61 0.73 0.91 1.02 1.03 1.10 1.08 1.04 1.03 1.11 1.21 1.22
0.62 0.71 0.79 0.84 0.82 0.80 0.79 0.83 0.88 0.92 0.91 0.88 0.85 0.86 0.83 0.74 0.66 0.61 0.59 0.57 0.56 0.52 0.47 0.44 0.44 0.46 0.53 0.69 0.83 0.89 0.88 0.85 0.87 0.88 0.87 0.89 0.94 1.14
0.56 0.59 0.63 0.67 0.67 0.66 0.65 0.67 0.72 0.77 0.78 0.78 0.75 0.73 0.69 0.66 0.58 0.54 0.51 0.48 0.47 0.44 0.44 0.45 0.43 0.42 0.45 0.52 0.61 0.69 0.72 0.74 0.78 0.82 0.85 0.92 0.91 0.98